CAPE
0 0 0 0 0 0 0 0 0 0 0 0 0 0 0 0 0 0 0 0 0 0
0 0 0 0 0 0 0 0 0 0 0 0 0 0 0 0 0 0 0 0 0 0
0 0 0 0 0 0 0 0 0 0 0 0 0 0 0 0 0 0 0 0 0 0
0 0 0 0 0 0 0 0 0 0 0 0 0 0 0 0 0 0 0 0 0 0
0 0 0 0 0 0 0 0 0 0 0 0 0 0 0 0 0 0 0 0 0 0
0 0 0 0 0 0 0 0 0 0 0 0 0 0 0 0 0 0 0 0 0 0
0 0 0 0 0 0 0 0 0 0 0 0 0 0 0 0 0 0 0 0 0 0
0 0 0 0 0 0 0 0 0 0 0 0 0 0 0 0 0 0 0 0 0 0
0 0 0 0 0 0 0 0 0 0 0 0 0 0 0 0 0 0 0 0 0 0
0 0 0 0 0 0 0 0 0 0 0 0 0 0 0 0 0 0 0 0 0 0
0 0 0 0 0 0 0 0 0 0 0 0 0 0 0 0 0 0 0 0 0 0
0 0 0 0 0 0 0 0 0 0 0 0 0 0 0 0 0 0 0 0 0 0
0 0 0 0 0 0 0 0 0 0 0 0 0 0 0 0 0 0 0 0 0 0
0 0 0 0 0 0 0 0 0 0 0 0 0 0 0 0 0 0 0 0 0 0
CIN
0 0 0 0 0 0 0 0 0 0 0 0 0 0 0 0 0 0 0 0 0 0
0 0 0 0 0 0 0 0 0 0 0 0 0 0 0 0 0 0 0 0 0 0
0 0 0 0 0 0 0 0 0 0 0 0 0 0 0 0 0 0 0 0 0 0
0 0 0 0 0 0 0 0 0 0 0 0 0 0 0 0 0 0 0 0 0 0
0 0 0 0 0 0 0 0 0 0 0 0 0 0 0 0 0 0 0 0 0 0
0 0 0 0 0 0 0 0 0 0 0 0 0 0 0 0 0 0 0 0 0 0
0 0 0 0 0 0 0 0 0 0 0 0 0 0 0 0 0 0 0 0 0 0
0 0 0 0 0 0 0 0 0 0 0 0 0 0 0 0 0 0 0 0 0 0
0 0 0 0 0 0 0 0 0 0 0 0 0 0 0 0 0 0 0 0 0 0
0 0 0 0 0 0 0 0 0 0 0 0 0 0 0 0 0 0 0 0 0 0
0 0 0 0 0 0 0 0 0 0 0 0 0 0 0 0 0 0 0 0 0 0
0 0 0 0 0 0 0 0 0 0 0 0 0 0 0 0 0 0 0 0 0 0
0 0 0 0 0 0 0 0 0 0 0 0 0 0 0 0 0 0 0 0 0 0
0 0 0 0 0 0 0 0 0 0 0 0 0 0 0 0 0 0 0 0 0 0
Wind_Speed
9 9 9 8 9 9 9 9 9 10 11 12 12 12 13 13 14 14 14 14 15 15
10 10 9 8 7 7 7 7 8 9 10 11 11 12 12 13 13 13 14 14 14 14
11 10 9 8 7 7 6 6 7 8 9 10 11 11 12 12 12 13 13 13 13 14
12 11 10 9 8 7 7 6 7 8 9 10 10 11 11 12 12 12 13 13 14 14
14 13 12 11 10 9 8 8 9 9 9 10 11 11 11 11 12 13 13 14 14 15
16 15 15 14 13 12 11 11 11 11 11 11 11 12 12 13 13 14 14 15 15 15
18 18 18 17 16 15 14 13 13 13 13 13 13 14 14 14 15 15 16 16 17 17
21 21 21 21 20 19 18 17 17 16 16 16 16 16 16 16 16 17 18 19 19 19
24 23 24 24 24 24 23 21 20 20 19 19 20 19 18 18 19 19 20 21 21 21
27 28 27 27 27 27 27 25 24 24 24 24 23 21 21 21 22 23 23 23 23 24
29 29 30 31 32 31 30 29 29 29 27 27 26 24 24 25 26 26 26 26 26 26
29 30 29 30 31 32 31 32 32 31 29 29 29 28 28 28 29 30 30 29 27 27
25 27 29 29 29 30 30 32 31 32 31 31 32 30 31 30 32 33 32 31 30 29
25 26 27 28 28 29 30 31 32 33 33 33 33 32 32 31 33 32 33 33 32 31
Wind_Direction
286 292 298 306 316 323 333 342 354 359 359 357 358 360 1 1 1 2 2 4 5 6
277 280 284 293 306 316 330 339 346 348 348 350 352 353 354 353 355 356 356 357 360 360
264 269 277 283 289 298 309 319 326 330 336 340 343 344 344 344 345 347 346 348 351 352
260 264 266 266 273 278 289 296 304 312 319 325 329 331 333 335 336 336 338 339 341 342
260 258 256 256 259 265 271 282 289 298 305 311 316 319 321 322 324 325 325 327 329 331
258 254 251 252 255 258 265 273 281 288 294 301 305 308 310 311 313 315 316 318 320 322
257 253 251 252 253 255 260 266 272 279 287 293 297 299 302 303 305 306 308 310 312 313
266 262 258 254 253 257 258 264 270 275 281 286 290 293 294 296 298 300 301 303 305 307
267 263 258 257 256 257 260 263 266 270 274 279 285 287 289 291 292 294 295 297 299 302
268 265 261 259 258 257 258 261 263 268 272 276 280 283 285 287 290 290 291 292 294 296
272 268 266 262 260 261 261 260 264 268 272 276 279 281 283 285 287 287 287 288 289 291
273 272 269 264 262 262 262 263 265 269 270 273 278 279 281 283 285 284 284 285 286 288
277 274 271 270 267 267 265 265 267 269 271 274 277 277 279 280 283 283 283 283 283 285
282 279 276 275 272 271 269 270 270 271 274 276 278 280 278 278 282 282 283 284 285 284